sat.trackr.live / text

‹ back to catalog

STARLINK-11437 [DTC]

NORAD 62884 · 2025-024F

PAYLOAD ACTIVE UNKNOWN

§ Identity

Operator
Country
US
Launch date
2025-02-04
Launch site
AFETR
Launch vehicle
Mass (kg)
RCS (m²)

Purposes: comms

External: N2YO · Heavens-Above · Gunter

§ Orbital elements

Epoch: 2026-05-25T04:07:17.364000Z

Period
91.67 min
Inclination
43.0024°
Eccentricity
0.0003271
Mean motion
15.70928868 rev/d
Perigee alt
354.0 km
Apogee alt
358.4 km
Semi-major
6,734.4 km
B*
1.3486e-3
RAAN
80.5877°
Arg perigee
251.1162°
Mean anomaly
108.9351°
Rev number
7,549

§ Raw data

STARLINK-11437 [DTC]1 62884U 25024F   26145.17172875  .00177016  00000+0  13486-2 0  99922 62884  43.0024  80.5877 0003271 251.1162 108.9351 15.70928868 75495

JSON: /api/v1/satellites/62884 · /tle

For live sub-satellite position, see the globe view (requires WebGL).

§ Visibility from observer

Set your observer location to see the next 7 days of passes ≥ 10°. The values pass through the URL so the page stays shareable.

No JS? Fill the form by hand. The geolocation button needs JavaScript.